Jaffrey, NH

8:20 PM EDT on August 25, 2016 (GMT -0400)
Jaffrey Airport-Silver Ranch

Weather History for KAFN - September, 2013

Change the Weather History Date:

Wednesday, September 25, 2013

  Actual Average Record
Temperature  
Mean Temperature 54 °F -  
Max Temperature 66 °F 64 °F 82 °F (2007)
Min Temperature 41 °F 43 °F 35 °F (1997)
Degree Days  
Heating Degree Days 12    
Growing Degree Days 4 (Base 50)    
Moisture  
Dew Point 45 °F    
Average Humidity 74    
Maximum Humidity 93    
Minimum Humidity 49    
Precipitation  
Precipitation 0.00 in - - ()
Sea Level Pressure  
Sea Level Pressure 29.95 in    
Wind  
Wind Speed 1 mph (NW)    
Max Wind Speed 6 mph    
Max Gust Speed -    
Visibility 10 miles    
Events      
Averages and records for this station are not official NWS values.
T = Trace of Precipitation, MM = Missing Value Source: NWS Daily Summary

Daily Weather History Graph

Daily Weather History Graph

Search for Another Location

Airport or City:

Trip Planner

Search our weather history database for the weather conditions in past years. The results will help you decide how hot, cold, wet, or windy it might be!

Date:

Astronomy

Sep. 25, 2013 Rise Set
Actual Time 6:38 AM EDT 6:39 PM EDT
Civil Twilight 6:10 AM EDT 7:07 PM EDT
Nautical Twilight 5:37 AM EDT 7:40 PM EDT
Astronomical Twilight 5:04 AM EDT 8:14 PM EDT
Moon 10:36 PM EDT (9/25) 12:49 PM EDT (9/25)
Length of Visible Light 12h 57m
Length of Day
12h 00m
Waning Gibbous, 64% of the Moon is Illuminated
Sep 25
Waning Gibbous
Sep 26
Last Quarter
Oct 4
New
Oct 11
First Quarter
Oct 18
Full

Hourly Weather History & Observations

Time (EDT) Temp. Dew Point Humidity Pressure Visibility Wind Dir Wind Speed Gust Speed Precip Events Conditions
12:52 AM 44.1 °F 41.0 °F 89% 29.94 in 10.0 mi Calm Calm - N/A   Clear
1:52 AM 44.1 °F 42.1 °F 93% 29.95 in 10.0 mi Calm Calm - N/A   Clear
2:52 AM 43.0 °F 41.0 °F 93% 29.94 in 10.0 mi Calm Calm - N/A   Clear
3:52 AM 42.1 °F 39.9 °F 92% 29.94 in 10.0 mi Calm Calm - N/A   Clear
4:52 AM 41.0 °F 39.0 °F 93% 29.94 in 10.0 mi Calm Calm - N/A   Clear
5:52 AM 41.0 °F 39.0 °F 93% 29.94 in 10.0 mi Calm Calm - N/A   Clear
6:52 AM 42.1 °F 39.9 °F 92% 29.94 in 10.0 mi Calm Calm - N/A   Clear
7:52 AM 46.9 °F 42.1 °F 83% 29.94 in 10.0 mi Calm Calm - N/A   Clear
8:52 AM 54.0 °F 43.0 °F 66% 29.95 in - NNW 5.8 mph - N/A   Clear
9:52 AM 57.0 °F 44.1 °F 62% 29.96 in 10.0 mi Variable 4.6 mph - N/A   Clear
10:52 AM 59.0 °F 45.0 °F 60% 29.96 in 10.0 mi Variable 3.5 mph - N/A   Partly Cloudy
11:52 AM 63.0 °F 46.9 °F 56% 29.94 in 10.0 mi Variable 3.5 mph - N/A   Clear
12:52 PM 64.0 °F 46.0 °F 52% 29.94 in 10.0 mi Variable 3.5 mph - N/A   Partly Cloudy
1:52 PM 66.0 °F 46.9 °F 50% 29.93 in 10.0 mi NW 4.6 mph - N/A   Scattered Clouds
2:52 PM 66.9 °F 46.9 °F 49% 29.92 in 10.0 mi Variable 5.8 mph - N/A   Scattered Clouds
3:52 PM 66.0 °F 46.9 °F 50% 29.92 in 10.0 mi Variable 3.5 mph - N/A   Mostly Cloudy
4:52 PM 63.0 °F 48.9 °F 60% 29.93 in 10.0 mi Variable 4.6 mph - N/A   Overcast
5:52 PM 61.0 °F 48.9 °F 64% 29.95 in 10.0 mi Calm Calm - N/A   Mostly Cloudy
6:52 PM 57.0 °F 50.0 °F 77% 29.96 in 10.0 mi Calm Calm - N/A   Mostly Cloudy
7:52 PM 55.9 °F 48.9 °F 77% 29.98 in 10.0 mi Calm Calm - N/A   Overcast
8:52 PM 54.0 °F 48.0 °F 80% 29.99 in 10.0 mi Calm Calm - N/A   Mostly Cloudy
9:52 PM 53.1 °F 48.0 °F 83% 30.01 in 10.0 mi Calm Calm - N/A   Overcast
10:52 PM 54.0 °F 46.9 °F 77% 30.02 in 10.0 mi Calm Calm - N/A   Overcast
11:52 PM 53.1 °F 46.9 °F 80% 30.02 in 10.0 mi Calm Calm - N/A   Overcast